Regional Weather Roundup
Issued by NWS

Home | Current Version | Previous Version | Text Only | Print | Product List | Glossary On
Versions: 1 2 3 4 5 6 7 8 9 10 11 12 13 14 15 16 17 18 19 20 21 22 23 24 25 26 27 28 29 30 31 32 33 34 35 36 37 38 39 40 41 42 43 44 45 46 47 48 49 50
000
ASUS43 KDTX 251301
RWRMI
MICHIGAN HOURLY REGIONAL WEATHER ROUNDUP
NATIONAL WEATHER SERVICE DETROIT/PONTIAC MI
900 AM EDT SAT APR 25 2015

NOTE: "FAIR" INDICATES FEW OR NO CLOUDS BELOW 12,000 FEET WITH NO
SIGNIFICANT WEATHER AND/OR OBSTRUCTION TO VISIBILITY.

MIZ047>049-052>055-059>063-066>070-074>076-081>083-251400-
SOUTHEAST LOWER MICHIGAN

CITY           SKY/WX    TMP DP  RH WIND       PRES   REMARKS
ADRIAN         CLOUDY    42  39  89 E12       29.91S
ALMA           CLOUDY    39  24  54 NE8       29.94F WCI  33
ANN ARBOR      CLOUDY    43  36  76 E8        29.92S
BAD AXE        CLOUDY    37  20  50 E5        29.98R WCI  34
CARO           PTSUNNY   37  24  57 CALM      29.95F
DETROIT CITY   CLOUDY    42  31  64 E7        29.96R
DETROIT        CLOUDY    43  35  73 E8        29.95R
FLINT          CLOUDY    42  22  44 SE7       29.95R
GROSSE ILE     CLOUDY    43  36  75 E6        29.93R
HILLSDALE      CLOUDY    41  40  95 E9        29.88S FOG
HOWELL         CLOUDY    41  32  71 E6        29.92S

CITY           SKY/WX    TMP DP  RH WIND       PRES   REMARKS
JACKSON        CLOUDY    41  37  86 E8        29.90S
LAMBERTVILLE   CLOUDY    45  37  76 E7        29.92R
LANSING        CLOUDY    43  37  79 E6        29.92S
LAPEER         CLOUDY    37  25  63 CALM      29.95S
MASON          CLOUDY    42  36  79 E9        29.91S
MONROE         CLOUDY    43  39  87 E7        29.91R
MT. CLEMENS    CLOUDY    39  28  62 E8        29.93R WCI  34
PONTIAC        CLOUDY    40  24  53 E6        29.93R
PORT HOPE        N/A     37  23  56 E9        29.98R WCI  30
PORT HURON     PTSUNNY   37  25  60 NE7       29.97S WCI  32
TRI CITIES     CLOUDY    38  24  57 E8        29.97R WCI  32
TROY           CLOUDY    41  26  55 E7        29.97R
SAGINAW HB     CLOUDY    37  25  60 NE7       29.96S WCI  32
$$
MIZ043>046-050>051-056>058-064>065-071>073-077>080-251400-
SOUTHWEST LOWER MICHIGAN

CITY           SKY/WX    TMP DP  RH WIND       PRES   REMARKS
BATTLE CREEK   CLOUDY    42  38  85 E6        29.89S
BENTON HARBOR  CLOUDY    43  37  79 E10       29.83F
BIG RAPIDS     CLOUDY    37  22  54 E7        29.92F WCI  32
COLDWATER      CLOUDY    42  37  82 E12       29.86F
FREMONT        CLOUDY    39  20  47 E8        29.91S WCI  33
HOLLAND        CLOUDY    44  38  79 E10       29.89S
GRAND RAPIDS   CLOUDY    39  30  70 E8        29.90S WCI  33
IONIA          CLOUDY    39  29  69 E7        29.90S WCI  34
KALAMAZOO      CLOUDY    43  38  82 E6        29.87F
LUDINGTON      CLOUDY    40  22  48 E8        29.92S
MARSHALL       CLOUDY    40  37  89 E7        29.89R
MOUNT PLEASANT CLOUDY    37  25  60 NE6       29.95S WCI  33
MUSKEGON       CLOUDY    41  32  70 E12       29.90S
SOUTH HAVEN    CLOUDY    45  38  78 E10G16    29.85S
$$
MIZ016>042-251400-
NORTHERN LOWER MICHIGAN

CITY           SKY/WX    TMP DP  RH WIND       PRES   REMARKS
ALPENA         SUNNY     35  24  64 NW3       30.02R
BEAVER ISLAND  SUNNY     34  26  71 E8        30.00S WCI  27
BELLAIRE       SUNNY     38  22  51 CALM      29.99S
CADILLAC       CLOUDY    37  21  51 E10       29.93S WCI  30
CHARLEVOIX     SUNNY     35  22  58 E3        30.02S
FRANKFORT      CLOUDY    42  17  37 E8        29.96R
GAYLORD        SUNNY     34  20  56 E5        29.97R WCI  30
GRAYLING       MOSUNNY   35  21  57 E7        29.97S WCI  29
HARBOR SPRINGS SUNNY     33  25  72 E6        30.00S WCI  27
HOUGHTON LAKE  MOSUNNY   37  19  48 E9        29.97R WCI  30
MANISTEE       MOSUNNY   37  19  48 E10       29.95S WCI  30
OSCODA         SUNNY     37  29  74 N3        30.00R
PELLSTON       SUNNY     33  25  72 VRB3      30.01S
ROGERS CITY    SUNNY     34  29  80 CALM      30.02S
TRAVERSE CITY  PTSUNNY   38  25  59 N7        29.97R WCI  33
$$
MIZ007>008-015-251400-
EASTERN UPPER MICHIGAN

CITY           SKY/WX    TMP DP  RH WIND       PRES   REMARKS
KINROSS        SUNNY     36  23  60 E9        30.02S WCI  29
MACKINAC ISLAN SUNNY     33  25  73 NE10      30.01S WCI  25
NEWBERRY       SUNNY     30  24  79 NE8       30.01S WCI  23
S. S. MARIE    SUNNY     37  20  50 E6        30.02S WCI  32
$$
MIZ004>006-011>014-085-251400-
CENTRAL UPPER MICHIGAN

CITY           SKY/WX    TMP DP  RH WIND       PRES   REMARKS
MANISTIQUE     MOSUNNY   34  22  62 NE7       30.00F WCI  28
ESCANABA       PTSUNNY   36  18  48 NE3       30.01S
MENOMINEE      PTSUNNY   37  25  60 E13G20    29.98R WCI  29
SAWYER-GWINN   SUNNY     34  14  44 NE8       29.99S WCI  27
$$
MIZ001>003-009>011-084-251400-
WESTERN UPPER MICHIGAN

CITY           SKY/WX    TMP DP  RH WIND       PRES   REMARKS
IRON MOUNTAIN  PTSUNNY   36  20  52 E6        29.97F WCI  31
HOUGHTON       PTSUNNY   35  21  56 E8        30.03R WCI  29
COPPER HARBOR    N/A     34  26  72 CALM      30.06R
IRONWOOD       CLOUDY    37  28  70 E6        29.94S WCI  33
$$

ABBREVIATIONS USED IN REMARKS
   TC - TEMPERATURE IN CELSIUS
  WCI - WIND CHILL INDEX
   HX - HEAT INDEX
  VSB - VISIBILITY



USA.gov is the U.S. government's official web portal to all federal, state and local government web resources and services.